2 Dec
2018
2 Dec
'18
5:49 a.m.
Below is a Prelaunch TLE for Fox-1Cliff. Per SpaceX the SSO-A launch from Vandenberg AFB, California is scheduled for Sunday, December 2 at 18:32 UTC. Thanks to Alan Biddle, WA4SCA (who prepared them) and Jerry Buxton, N0JY
Fox-1Cliff PreLaunch 1 99995U 18095A 18336.80285382 .00000000 00000-0 00000-0 0 15 2 99995 97.7695 45.6745 0014762 280.3890 0.8082 14.96282180 17
Ray Hoad WA5QGD AMSAT-NA Orbital Elements Manager
2212
Age (days ago)
2212
Last active (days ago)
0 comments
1 participants
participants (1)
-
Ray Hoad